TIME,DELAY(SENSOR),PRES,T(CTD),SAL,OXYGEN,RAWTEMP,T(OPTODE),TCPHASE,TURBIDITY,TURBIDITY_GAIN,FLUOR,BETA,CDOM,ED411.5,ED443.8,ED489.6,PAR,COMP,TILT,TILTY(TILT),CHECK
1341610511,6468,289.3299865722656000,4.9155998229980470,34.9856986999511700,353.5983886718750000,761.4027709960938000,4.8871731758117680,33.9814491271972660,16,3,49,100,63,2147245650,2147562147,2147571954,2147363660,1355,0,-12,45764
1341610573,6467,285.6400146484375000,4.9155001640319820,34.9855003356933600,352.9136047363281000,761.3989868164062000,4.8873019218444820,34.0044288635253900,16,3,49,100,62,2147246637,2147563392,2147571711,2147362193,1145,0,-10,55863
1341610635,6468,281.8900146484375000,4.9149999618530270,34.9856986999511700,352.9020996093750000,761.3991699218750000,4.8872971534729000,34.0045700073242200,16,3,50,101,64,2147244100,2147561956,2147572370,2147360877,926,0,-12,1016
1341610697,6467,278.0899963378906000,4.9149999618530270,34.9856986999511700,352.7491149902344000,761.4019775390625000,4.8872008323669430,34.0096511840820300,16,3,48,101,63,2147251318,2147560378,2147570308,2147361000,646,0,-12,14602
1341610759,6466,274.2900085449219000,4.9144001007080080,34.9860000610351560,352.7127990722656000,761.4083862304688000,4.8869757652282715,34.0113716125488300,16,3,48,101,64,2147248448,2147559464,2147570211,2147359556,380,0,-12,58614
1341610821,6502,270.4800109863281000,4.9142999649047850,34.9859008789062500,352.5978088378906000,761.4132080078125000,4.8868060111999510,34.0151901245117200,16,3,48,99,64,2147243908,2147561686,2147569778,2147363492,3565,0,-12,49435
1341610883,6468,266.6799926757812500,4.9137001037597660,34.9860992431640600,352.6882019042969000,761.4246826171875000,4.8864059448242190,34.0125007629394500,16,3,50,103,64,2147245978,2147564027,2147568644,2147359967,3193,0,-12,51916
1341610945,6468,262.8299865722656000,4.9137001037597660,34.9859008789062500,352.7701110839844000,761.4340209960938000,4.8860797882080080,34.0098991394043000,16,3,49,101,64,2147242440,2147559894,2147570701,2147361608,2898,0,-12,24460
1341611007,6502,259.0499877929687500,4.9135999679565430,34.9855995178222660,352.8461914062500000,761.4440917968750000,4.8857250213623050,34.0074195861816400,16,3,48,103,62,2147244845,2147559606,2147569855,2147363094,2668,0,-12,1016
1341611069,6467,255.3099975585937500,4.9130997657775880,34.9859008789062500,352.7746887207031000,761.4448242187500000,4.8857040405273440,34.0100517272949200,16,3,49,106,64,2147248607,2147560785,2147568859,2147362879,2482,0,-12,45208
1341611132,6468,251.5399932861328000,4.9134001731872560,34.9852981567382800,352.9296875000000000,761.4552001953125000,4.8853378295898440,34.0048103332519500,16,3,49,102,64,2147246444,2147559250,2147571167,2147361979,2262,0,-12,48721
1341611194,6467,247.8300018310547000,4.9123997688293460,34.9860992431640600,352.7980957031250000,761.4619750976562000,4.8850989341735840,34.0093688964843750,16,3,49,103,64,2147245613,2147558843,2147571231,2147360411,2081,0,-12,23869
1341611258,6469,244.0500030517578000,4.9126000404357910,34.9855995178222660,352.8750000000000000,761.4697875976562000,4.8848228454589840,34.0070915222168000,16,3,48,108,63,2147247583,2147559163,2147572017,2147360168,1903,0,-12,58269
1341611320,6468,240.3899993896484400,4.9117999076843260,34.9861984252929700,352.7573852539062500,761.4752197265625000,4.8846402168273930,34.0110092163085940,16,3,50,105,64,2147248822,2147559478,2147571208,2147363656,1674,0,-12,33311
1341611384,6468,236.6699981689453000,4.9120998382568360,34.9855995178222660,352.4978027343750000,761.4840087890625000,4.8843269348144530,34.0197601318359400,16,3,48,102,64,2147246372,2147557507,2147570856,2147360822,1528,0,-12,18070
1341611446,6468,233.1199951171875000,4.9116997718811035,34.9859008789062500,352.6881103515625000,761.4904785156250000,4.8840999603271480,34.0136108398437500,16,3,47,104,64,2147243213,2147563487,2147570692,2147361147,1373,0,-12,44130
1341611510,6466,229.5000000000000000,4.9109001159667970,34.9863014221191400,352.5176086425781000,761.4995117187500000,4.8837871551513670,34.0195083618164060,16,3,50,103,64,2147246700,2147559583,2147572292,2147363619,1154,0,-12,46747
1341611572,6466,226.0099945068359400,4.9109997749328610,34.9860992431640600,352.2481994628906000,761.5026245117188000,4.8836779594421390,34.0284996032714840,16,3,49,105,62,2147243898,2147555697,2147571524,2147363533,954,0,-12,46464
1341611636,6468,222.4499969482422000,4.9106001853942870,34.9861984252929700,352.3392028808594000,761.5090942382812000,4.8834509849548340,34.0254516601562500,16,3,50,102,63,2147244026,2147560625,2147571217,2147362312,764,0,-12,6596
1341611698,6469,219.0399932861328000,4.9106001853942870,34.9859008789062500,352.2149047851562500,761.5167846679688000,4.8831830024719240,34.0299911499023440,16,3,49,103,64,2147247583,2147561325,2147570216,2147361585,587,0,-12,19155
1341611761,6468,215.6199951171875000,4.9105000495910645,34.9858016967773440,352.2586975097656000,761.5236816406250000,4.8829360008239750,34.0288505554199200,26,3,49,103,64,2147247638,2147561128,2147573787,2147363391,191,0,-12,7458
1341611823,6468,212.3000030517578000,4.9102001190185550,34.9859008789062500,352.1409912109375000,761.5286254882812000,4.8827691078186035,34.0328216552734400,16,3,50,103,63,2147246336,2147558403,2147575555,2147359011,3357,0,-12,57397
1341611887,6467,208.8999938964843800,4.9099998474121090,34.9859008789062500,352.1329956054687500,761.5352783203125000,4.8825321197509770,34.0331611633300800,16,3,49,108,64,2147244717,2147563081,2147575236,2147364666,3042,0,-12,15819
1341611949,6467,205.6199951171875000,4.9099001884460450,34.9856986999511700,352.0105895996094000,761.5451049804688000,4.8821911811828610,34.0375900268554700,16,3,49,106,64,2147242911,2147562723,2147575880,2147363039,2817,0,-12,24254
1341612013,6468,202.3099975585937500,4.9096999168396000,34.9856986999511700,352.0047912597656000,761.5499267578125000,4.8820209503173830,34.0377807617187500,16,3,49,101,64,2147245700,2147562682,2147573641,2147363986,2612,0,-12,59137
1341612075,6469,199.1399993896484400,4.9095001220703125,34.9858016967773440,351.9545898437500000,761.5560302734375000,4.8818049430847170,34.0396118164062500,16,3,48,108,64,2147248000,2147562353,2147573343,2147361507,2395,0,-12,64847
1341612139,6466,195.8800048828125000,4.9089999198913570,34.9860000610351560,351.9295043945312500,761.5603027343750000,4.8816590309143070,34.0405311584472660,16,3,48,104,64,2147243442,2147563222,2147575057,2147361407,2198,0,-12,48207
1341612201,6468,192.7500000000000000,4.9089999198913570,34.9858016967773440,351.9342956542969000,761.5687255859375000,4.8813648223876950,34.0404396057128900,16,3,48,105,64,2147246664,2147562947,2147575386,2147361568,2003,0,-12,56844
1341612265,6503,189.5399932861328000,4.9082999229431150,34.9863014221191400,352.0447082519531000,761.5744018554688000,4.8811650276184080,34.0368385314941400,16,3,49,104,63,2147245430,2147559853,2147572904,2147359665,1775,0,-12,48191
1341612327,6467,186.4700012207031200,4.9085001945495605,34.9859008789062500,351.8326110839844000,761.5767822265625000,4.8810768127441410,34.0440788269043000,16,3,49,101,64,2147246568,2147561709,2147576621,2147363153,1561,0,-12,260
1341612390,6469,183.3999938964843800,4.9086999893188480,34.9855003356933600,351.9753112792969000,761.5836181640625000,4.8808398246765140,34.0395202636718750,16,3,49,102,64,2147246162,2147559108,2147576826,2147362856,1332,0,-12,38137
1341612452,6466,180.3999938964843800,4.9082999229431150,34.9858016967773440,351.8416137695312500,761.5850219726562000,4.8807930946350100,34.0437316894531250,16,3,48,106,63,2147246829,2147562609,2147579057,2147364580,1132,0,-12,63919
1341612516,6468,177.3399963378906200,4.9079999923706055,34.9859008789062500,351.7968139648437500,761.5905761718750000,4.8805961608886720,34.0456695556640600,16,3,48,103,64,2147248657,2147564516,2147578211,2147361576,891,0,-12,45627
1341612578,6468,174.3899993896484400,4.9074001312255860,34.9863014221191400,351.6344909667969000,761.5963134765625000,4.8803977966308590,34.0510292053222660,16,3,48,104,64,2147245315,2147559203,2147575890,2147361110,601,0,-12,33793
1341612642,6469,171.4100036621093800,4.9077000617980960,34.9859008789062500,351.7867126464844000,761.6013183593750000,4.8802218437194820,34.0461311340332000,16,3,48,107,64,2147247263,2147560219,2147575785,2147363300,310,0,-12,49893
1341612704,6466,168.5599975585937500,4.9074997901916500,34.9861984252929700,351.7117004394531000,761.6046752929688000,4.8801040649414060,34.0487785339355500,16,3,48,109,64,2147246595,2147561672,2147575300,2147359871,1574,0,-12,2956
1341612768,6468,165.6300048828125000,4.9074001312255860,34.9860000610351560,351.6359863281250000,761.6066284179688000,4.8800349235534670,34.0513496398925800,16,3,49,103,64,2147243084,2147563300,2147578180,2147366115,3290,0,-12,8148
1341612830,6466,162.8200073242187500,4.9074001312255860,34.9858016967773440,351.5028991699219000,761.6094970703125000,4.8799362182617190,34.0558891296386700,16,3,49,105,64,2147245489,2147561544,2147577585,2147364388,3026,0,-12,48760
1341612894,6469,159.9499969482422000,4.9074001312255860,34.9858016967773440,351.6491088867187500,761.6118164062500000,4.8798542022705080,34.0508499145507800,16,3,49,109,64,2147245942,2147562061,2147577485,2147363039,2769,0,-12,47478
1341612956,6467,157.1799926757812500,4.9070000648498535,34.9860992431640600,351.4431152343750000,761.6151733398438000,4.8797340393066410,34.0576782226562500,11,3,50,110,64,2147244424,2147560817,2147575062,2147361608,2589,0,-12,17013
1341613019,6468,154.3800048828125000,4.9067997932434080,34.9860992431640600,351.3591918945312500,761.6193237304688000,4.8795909881591800,34.0608406066894500,16,3,50,105,64,2147244328,2147563131,2147578157,2147363231,2377,0,-12,3440
1341613081,6466,151.6900024414062500,4.9067997932434080,34.9860000610351560,351.4057006835937500,761.6182861328125000,4.8796229362487790,34.0592498779296900,16,3,49,106,64,2147243880,2147563172,2147577859,2147363940,2211,0,-12,4324
1341613145,6466,148.9400024414062500,4.9067001342773440,34.9859008789062500,351.4885864257812500,761.6270141601562000,4.8793201446533200,34.0563697814941400,16,3,50,106,64,2147244186,2147564040,2147579236,2147362152,2047,0,-12,9824
1341613207,6469,146.3200073242187500,4.9060001373291020,34.9866981506347660,351.4331054687500000,761.6287841796875000,4.8792591094970700,34.0583496093750000,16,3,49,106,65,2147247213,2147564881,2147582321,2147360260,1860,0,-12,16799
1341613271,6468,143.6300048828125000,4.9068999290466310,34.9855995178222660,351.4841918945312500,761.6287841796875000,4.8792591094970700,34.0566902160644500,16,3,50,107,64,2147244986,2147563003,2147582422,2147363542,1684,0,-12,38605
1341613333,6467,140.9600067138672000,4.9065999984741210,34.9856986999511700,351.4195861816406000,761.6326904296875000,4.8791217803955080,34.0591583251953100,16,3,50,110,64,2147243652,2147564790,2147578838,2147362915,1510,0,-12,55288
1341613397,6469,138.2400054931640600,4.9063000679016110,34.9860992431640600,351.2781066894531000,761.6309814453125000,4.8791809082031250,34.0638694763183600,16,3,48,109,64,2147243386,2147563789,2147582614,2147361819,1414,0,-12,51032
1341613459,6468,135.5899963378906200,4.9065999984741210,34.9856986999511700,351.3341979980469000,761.6309814453125000,4.8791809082031250,34.0618896484375000,16,3,50,116,64,2147248228,2147563245,2147581238,2147360831,1315,0,-11,25918
1341613523,6468,132.9100036621093800,4.9067997932434080,34.9855995178222660,351.3674011230469000,761.6295776367188000,4.8792290687561035,34.0605201721191400,16,3,50,112,64,2147247071,2147564895,2147583016,2147363711,1128,0,-12,51038
1341613585,6469,130.2700042724609400,4.9064002037048340,34.9860000610351560,351.1805114746094000,761.6333007812500000,4.8791031837463380,34.0670585632324200,16,3,48,110,64,2147243436,2147562962,2147584731,2147365097,939,0,-12,30029
1341613648,6468,127.6299972534179700,4.9065999984741210,34.9860992431640600,351.1599121093750000,761.6254272460938000,4.8793768882751465,34.0673484802246100,18,3,50,110,64,2147246244,2147565037,2147588630,2147363561,685,0,-12,17425
1341613710,6468,125.0699996948242200,4.9070000648498535,34.9855995178222660,351.2008972167969000,761.6198730468750000,4.8795700073242190,34.0660896301269500,16,3,50,112,64,2147244891,2147566655,2147587661,2147364539,439,0,-12,22108
1341613774,6467,122.4300003051757800,4.9067997932434080,34.9860992431640600,351.0938110351562500,761.6193847656250000,4.8795847892761230,34.0699501037597660,16,3,50,118,63,2147244137,2147563080,2147589028,2147367775,126,0,-12,53983
1341613836,6467,119.9000015258789000,4.9067001342773440,34.9858016967773440,351.1709899902344000,761.6196289062500000,4.8795809745788570,34.0668601989746100,16,3,50,115,64,2147244237,2147565585,2147590628,2147363807,3499,0,-12,56288
1341613900,6469,117.3199996948242200,4.9065999984741210,34.9859008789062500,351.1279907226562500,761.6157836914062000,4.8797149658203125,34.0683593750000000,16,3,49,120,62,2147243547,2147564173,2147593082,2147363940,3162,0,-12,31319
1341613961,6468,114.9100036621093800,4.9072999954223630,34.9858016967773440,351.1109924316406000,761.6082153320312000,4.8799800872802730,34.0689811706543000,16,3,49,116,64,2147246244,2147562532,2147596497,2147367967,2989,0,-12,62234
1341614051,6504,110.7600021362304700,4.9074001312255860,34.9855995178222660,350.9955139160156000,761.6177978515625000,4.8796439170837400,34.0728797912597660,16,3,50,115,64,2147244360,2147567158,2147602705,2147366857,2665,0,-12,43753
1341614112,6469,107.1500015258789000,4.9078001976013180,34.9855995178222660,351.0534973144531000,761.6060791015625000,4.8800511360168460,34.0706596374511700,14,3,50,121,62,2147246385,2147568287,2147605147,2147368424,2444,0,-12,14224
1341614175,6468,103.4499969482421900,4.9081997871398930,34.9860000610351560,350.9798889160156000,761.5803222656250000,4.8809590339660645,34.0728988647460940,16,3,50,116,62,2147249462,2147569147,2147608652,2147369389,2281,0,-12,4278
1341614236,6469,99.9599990844726600,4.9095001220703125,34.9854011535644500,350.9321899414062500,761.5587158203125000,4.8817138671875000,34.0740013122558600,16,3,50,119,64,2147248780,2147567620,2147613320,2147366573,2156,0,-12,2651
1341614299,6467,96.4199981689453100,4.9102001190185550,34.9854011535644500,350.8315124511719000,761.5258789062500000,4.8828601837158200,34.0766716003418000,16,3,50,119,64,2147243994,2147567057,2147613078,2147369805,2012,0,-12,25649
1341614360,6504,93.0699996948242200,4.9112000465393070,34.9852981567382800,350.8684082031250000,761.4927978515625000,4.8840222358703610,34.0748596191406250,26,3,50,119,64,2147248685,2147565983,2147613206,2147368804,1862,0,-12,30211
1341614423,6469,89.6600036621093800,4.9135999679565430,34.9851989746093750,350.7356872558594000,761.4343261718750000,4.8860697746276855,34.0782508850097660,19,3,50,120,64,2147248753,2147570290,2147613348,2147368991,1696,0,-12,18409
1341614484,6466,86.3799972534179700,4.9194002151489260,34.9850997924804700,350.6843872070312500,761.2606811523438000,4.8921451568603520,34.0763587951660160,16,3,50,119,64,2147248324,2147568356,2147616648,2147369430,1507,0,-12,33957
1341614547,6465,82.9800033569336000,4.9300999641418460,34.9842987060546900,350.4655151367187500,760.9368896484375000,4.9034810066223145,34.0771484375000000,16,3,50,136,64,2147243995,2147570522,2147618093,2147372708,1382,0,-12,57058
1341614608,6468,79.6699981689453100,4.9416999816894530,34.9846992492675800,350.0929870605469000,760.6448974609375000,4.9137020111083980,34.0839691162109400,16,3,51,127,64,2147244891,2147568603,2147619556,2147370449,1198,0,-12,31249
1341614671,6469,76.2399978637695300,4.9450998306274410,34.9845008850097660,350.2583007812500000,760.5451049804688000,4.9171938896179200,34.0764312744140600,16,3,50,127,64,2147244835,2147572310,2147617187,2147371807,972,0,-12,3345
1341614732,6467,72.8700027465820300,4.9594001770019530,34.9846992492675800,350.1849975585937500,760.1124877929688000,4.9323348999023440,34.0703392028808600,16,3,52,127,64,2147248218,2147573188,2147619236,2147373316,711,0,-12,6276
1341614795,6468,69.3000030517578100,4.9855999946594240,34.9845008850097660,349.8655090332031000,759.3112792968750000,4.9603610038757320,34.0653190612793000,16,3,52,127,64,2147247611,2147571880,2147625179,2147373595,295,0,-12,23505
1341614856,6467,65.7600021362304700,5.0746002197265625,34.9852981567382800,349.2697143554687500,757.1555175781250000,5.0357341766357420,34.0430717468261700,16,3,60,137,66,2147248319,2147575779,2147630829,2147373851,242,0,-12,29151
1341614919,6468,61.8899993896484400,5.0904002189636230,34.9865989685058600,349.4682006835937500,756.4915161132812000,5.0589351654052730,34.0231208801269500,14,3,62,136,64,2147248877,2147574870,2147641603,2147376324,3176,0,-12,3658
1341614980,6467,57.8800010681152340,5.1163997650146480,34.9874000549316400,349.5466918945312500,755.6583251953125000,5.0880432128906250,34.0041999816894500,16,3,64,141,66,2147251218,2147579757,2147654289,2147383615,3011,0,-12,62822
1341615068,6468,52.6599998474121100,5.1690001487731930,34.9888000488281250,349.4826049804687500,754.2255859375000000,5.1380620002746580,33.9782485961914060,16,3,74,133,66,2147254596,2147586779,2147675359,2147391058,2625,0,-11,14635
1341615129,6467,49.7900009155273440,5.2010002136230470,34.9900016784668000,349.7043151855469000,753.3214721679688000,5.1696128845214840,33.9531898498535160,16,3,83,138,66,2147258225,2147590879,2147695172,2147394623,2269,0,-12,41470
1341615192,6469,46.8699989318847660,5.2602000236511230,34.9910011291503900,349.6192016601562500,752.0512084960938000,5.2139210700988770,33.9309806823730500,16,3,94,155,64,2147257325,2147599108,2147712840,2147399071,1992,0,-12,892
1341615253,6468,44.0699996948242200,5.2739000320434570,34.9930000305175800,349.9236145019531000,751.3734741210938000,5.2375488281250000,33.9075508117675800,16,3,96,145,66,2147266765,2147607903,2147738495,2147407272,1731,0,-11,5956
1341615316,6468,41.0699996948242200,5.3660998344421390,34.9945983886718750,349.8203125000000000,748.9310913085938000,5.3226490020751950,33.8635482788085940,16,3,123,161,64,2147273558,2147619807,2147775533,2147419889,1495,0,-12,22917
1341615377,6470,38.2200012207031250,5.3931999206542970,34.9958992004394500,350.8273925781250000,747.8618774414062000,5.3598752021789550,33.8090782165527340,18,3,138,160,64,2147284096,2147641155,2147819812,2147441622,1406,0,-11,52509
1341615440,6468,35.3400001525878900,5.6160998344421390,34.9976005554199200,351.0090942382812500,742.0230712890625000,5.5628662109375000,33.6902084350585940,24,3,214,211,66,2147293247,2147661618,2147868662,2147456447,1351,0,-12,23280
1341615501,6470,32.7400016784668000,5.7126002311706540,35.0005989074707000,352.6626892089844000,738.8914794921875000,5.6715350151062010,33.5751190185546900,29,3,257,251,66,2147313174,2147687455,2147937805,2147485293,1200,0,-11,34932
1341615564,6469,30.1299991607666000,5.7786002159118650,35.0029983520507800,354.2284851074219000,736.9976806640625000,5.7371850013732910,33.4870910644531250,33,3,293,274,64,2147339985,2147731135,2148026152,2147515857,896,0,-12,32360
1341615625,6470,27.6200008392334000,5.9221000671386720,35.0028991699218750,355.4153137207031000,732.8322753906250000,5.8813929557800290,33.3691902160644500,41,3,380,346,64,2147379007,2147779853,2148125257,2147562650,701,0,-12,50504
1341615688,6470,25.3400001525878900,6.1069002151489260,35.0055007934570300,358.1184997558594000,727.6917724609375000,6.0590190887451170,33.1840095520019500,54,3,491,413,65,2147432177,2147851258,2148257366,2147615903,954,0,-12,62752
1341615749,6469,23.6100006103515620,6.2525000572204590,35.0049018859863300,359.8496093750000000,723.1342163085938000,6.2161941528320310,33.0429496765136700,57,3,516,431,65,2147480703,2147909690,2148368644,2147656717,1218,0,-11,40540
1341615828,6471,21.4899997711181640,6.8063998222351070,35.0022010803222660,364.5208129882812500,710.5585937500000000,6.6483750343322750,32.6625900268554700,103,3,695,671,66,2147594536,2148056479,2148606189,2147753526,1098,0,-11,56340
1341615898,6471,19.2299995422363280,7.5255999565124510,34.9975013732910160,372.1542053222656000,686.2509155273438000,7.4776859283447270,31.9908199310302730,108,3,757,710,66,2147803670,2148303149,2148969796,2147907363,1205,0,-12,30571
1341615977,6470,16.2500000000000000,7.9875998497009280,35.0195999145507800,386.9317016601562500,671.9130249023438000,7.9632401466369630,31.3015308380126950,121,3,792,840,65,2148292616,2148863583,2149715999,2148227089,1327,0,-12,53102
1341616050,6471,12.8800001144409180,9.9917001724243160,35.0190010070800800,382.7174987792969000,610.2188720703125000,10.0241603851318360,30.4133396148681640,123,3,827,789,66,2149131670,2149789266,2150783633,2148706989,2556,1,-12,20655
1341616113,6469,11.4600000381469730,11.1423997879028320,35.0429992675781250,373.7300109863281000,578.4094848632812000,11.0703096389770500,30.1826190948486330,123,3,793,787,62,2149415606,2150092392,2151090345,2148860018,2320,1,-12,63403
1341616287,6469,9.1800003051757810,11.4212999343872070,35.0569992065429700,364.2478027343750000,568.0385742187500000,11.4091901779174800,30.3087596893310550,127,3,627,756,62,2150388986,2151123473,2152088562,2149393622,2221,0,-11,30215
1341616365,6469,6.0700001716613770,11.4381999969482420,35.0606002807617200,362.8046875000000000,567.2391967773438000,11.4352703094482420,30.3404598236084000,116,3,606,763,63,2152423487,2153227835,2154056809,2150583584,1818,11,-5,47981
1341616425,6470,3.1900000572204590,11.4377002716064450,35.0606002807617200,362.6549987792969000,567.3298950195312000,11.4323101043701170,30.3463993072509770,116,3,593,678,62,2155181229,2156023203,2156467149,2152610198,1252,16,-1,33953
1341616475,6469,0.8000000119209290,0.0000000000000000,0.0000000000000000,362.6687011718750000,567.3757934570312000,11.4308099746704100,30.3467292785644530,111,3,589,753,63,2156897279,2157700209,2157741997,2154270820,2870,-19,22,40783
